Le nostre stazioni meteo in Italia

Pubblicità
Il mio iltempo24.it
Treviso/S. Angelo, Italia (16099): Temperatura & dewpoint: 09.09.2019 21:00:00 - 15.09.2019 21:00:00 (CEST)Treviso/S. Angelo, Italia (16099): velocità del vento: 09.09.2019 21:00:00 - 15.09.2019 21:00:00 (CEST)Treviso/S. Angelo, Italia (16099): direzione del vento: 09.09.2019 21:00:00 - 15.09.2019 21:00:00 (CEST)Treviso/S. Angelo, Italia (16099): reduced air pressure: 09.09.2019 21:00:00 - 15.09.2019 21:00:00 (CEST)Treviso/S. Angelo, Italia (16099): visibility: 09.09.2019 21:00:00 - 15.09.2019 21:00:00 (CEST)Treviso/S. Angelo, Italia (16099): precipitazioni: 09.09.2019 21:00:00 - 15.09.2019 21:00:00 (CEST)
Data & Tempo tt [°C] td [°C] ff [km/h] ff [kn] dd ppp [hPa] vv [km] rr [mm]
15.09.2019 21:00:00 - - - - - - - -
15.09.2019 20:00:00 23,7 16,6 2 1 N 1021,6 20 -
15.09.2019 19:00:00 - - - - - - - -
15.09.2019 18:00:00 - - - - - - - -
15.09.2019 17:00:00 28,6 17,3 5 3 N 1022,0 20 0,0
15.09.2019 16:00:00 - - - - - - - -
15.09.2019 15:00:00 - - - - - - - -
15.09.2019 14:00:00 27,8 15,9 5 3 ESE 1023,9 15 -
15.09.2019 13:00:00 - - - - - - - -
15.09.2019 12:00:00 - - - - - - - -
15.09.2019 11:00:00 25,7 14,7 5 3 E 1025,7 15 0,0
15.09.2019 10:00:00 - - - - - - - -
15.09.2019 09:00:00 - - - - - - - -
15.09.2019 08:00:00 19,8 16,2 2 1 NO 1026,2 20 -
15.09.2019 07:00:00 - - - - - - - -
15.09.2019 06:00:00 - - - - - - - -
15.09.2019 05:00:00 18,9 15,9 2 1 N 1026,0 - 0,0
15.09.2019 04:00:00 - - - - - - - -
15.09.2019 03:00:00 - - - - - - - -
15.09.2019 02:00:00 19,9 16,9 4 2 N 1026,2 - -
15.09.2019 01:00:00 - - - - - - - -
15.09.2019 00:00:00 - - - - - - - -
14.09.2019 23:00:00 20,0 16,8 2 1 N 1026,8 - 0,0
14.09.2019 22:00:00 - - - - - - - -
14.09.2019 21:00:00 - - - - - - - -
14.09.2019 20:00:00 23,9 16,0 2 1 E 1026,6 15 -
14.09.2019 19:00:00 - - - - - - - -
14.09.2019 18:00:00 - - - - - - - -
14.09.2019 17:00:00 28,0 16,4 11 6 SE 1026,3 20 0,0
14.09.2019 16:00:00 - - - - - - - -
14.09.2019 15:00:00 - - - - - - - -
14.09.2019 14:00:00 28,6 15,9 5 3 N 1027,9 25 -
14.09.2019 13:00:00 - - - - - - - -
14.09.2019 12:00:00 - - - - - - - -
14.09.2019 11:00:00 25,6 15,5 8 4 NE 1029,2 25 0,0
14.09.2019 10:00:00 - - - - - - - -
14.09.2019 09:00:00 - - - - - - - -
14.09.2019 08:00:00 18,8 15,3 4 2 NNE 1028,7 25 -
14.09.2019 07:00:00 - - - - - - - -
14.09.2019 06:00:00 - - - - - - - -
14.09.2019 05:00:00 17,8 15,4 8 4 NNE 1028,1 - 0,0
14.09.2019 04:00:00 - - - - - - - -
14.09.2019 03:00:00 - - - - - - - -
14.09.2019 02:00:00 17,6 15,3 0 0 - 1028,3 - -
14.09.2019 01:00:00 - - - - - - - -
14.09.2019 00:00:00 - - - - - - - -
13.09.2019 23:00:00 19,7 15,1 4 2 N 1028,5 25 0,0
13.09.2019 22:00:00 - - - - - - - -
13.09.2019 21:00:00 - - - - - - - -
13.09.2019 20:00:00 22,6 14,5 2 1 N 1027,7 20 -
13.09.2019 19:00:00 - - - - - - - -
13.09.2019 18:00:00 - - - - - - - -
13.09.2019 17:00:00 27,9 14,1 8 4 SSE 1027,7 25 0,0
13.09.2019 16:00:00 - - - - - - - -
13.09.2019 15:00:00 - - - - - - - -
13.09.2019 14:00:00 27,7 13,9 5 3 E 1029,3 20 -
13.09.2019 13:00:00 - - - - - - - -
13.09.2019 12:00:00 - - - - - - - -
13.09.2019 11:00:00 25,6 14,1 5 3 ENE 1030,8 10 0,0
13.09.2019 10:00:00 - - - - - - - -
13.09.2019 09:00:00 - - - - - - - -
13.09.2019 08:00:00 18,3 14,3 4 2 N 1030,3 65 -
13.09.2019 07:00:00 - - - - - - - -
13.09.2019 06:00:00 - - - - - - - -
13.09.2019 05:00:00 17,2 13,7 4 2 N 1029,4 - 0,0
13.09.2019 04:00:00 - - - - - - - -
13.09.2019 03:00:00 - - - - - - - -
13.09.2019 02:00:00 17,7 14,8 5 3 NE 1029,6 - -
13.09.2019 01:00:00 - - - - - - - -
13.09.2019 00:00:00 - - - - - - - -
12.09.2019 23:00:00 19,5 15,7 4 2 N 1029,0 65 0,0
12.09.2019 22:00:00 - - - - - - - -
12.09.2019 21:00:00 - - - - - - - -
12.09.2019 20:00:00 23,1 14,3 0 0 N 1027,9 65 -
12.09.2019 19:00:00 - - - - - - - -
12.09.2019 18:00:00 - - - - - - - -
12.09.2019 17:00:00 28,3 12,7 8 4 OSO 1027,5 10 0,0
12.09.2019 16:00:00 - - - - - - - -
12.09.2019 15:00:00 - - - - - - - -
12.09.2019 14:00:00 27,7 12,5 5 3 S 1028,4 20 -
12.09.2019 13:00:00 - - - - - - - -
12.09.2019 12:00:00 - - - - - - - -
12.09.2019 11:00:00 25,3 13,9 2 1 N 1028,3 25 0,0
12.09.2019 10:00:00 - - - - - - - -
12.09.2019 09:00:00 - - - - - - - -
12.09.2019 08:00:00 17,2 13,6 5 3 NO 1026,9 20 -
12.09.2019 07:00:00 - - - - - - - -
12.09.2019 06:00:00 - - - - - - - -
12.09.2019 05:00:00 15,9 13,2 2 1 NNO 1024,9 - 0,0
12.09.2019 04:00:00 - - - - - - - -
12.09.2019 03:00:00 - - - - - - - -
12.09.2019 02:00:00 17,4 13,7 4 2 N 1024,5 - -
12.09.2019 01:00:00 - - - - - - - -
12.09.2019 00:00:00 - - - - - - - -
11.09.2019 23:00:00 17,7 14,1 4 2 NNE 1023,7 20 0,0
11.09.2019 22:00:00 - - - - - - - -
11.09.2019 21:00:00 - - - - - - - -
11.09.2019 20:00:00 21,9 12,2 4 2 O 1021,5 25 -
11.09.2019 19:00:00 - - - - - - - -
11.09.2019 18:00:00 - - - - - - - -
11.09.2019 17:00:00 25,7 9,4 4 2 NNE 1020,8 25 0,0
11.09.2019 16:00:00 - - - - - - - -
11.09.2019 15:00:00 - - - - - - - -
11.09.2019 14:00:00 26,1 12,4 4 2 N 1020,8 10 -
11.09.2019 13:00:00 - - - - - - - -
11.09.2019 12:00:00 - - - - - - - -
11.09.2019 11:00:00 23,1 10,5 8 4 NE 1021,2 10 0,0
11.09.2019 10:00:00 - - - - - - - -
11.09.2019 09:00:00 - - - - - - - -
11.09.2019 08:00:00 16,0 11,8 4 2 N 1020,1 10 -
11.09.2019 07:00:00 - - - - - - - -
11.09.2019 06:00:00 - - - - - - - -
11.09.2019 05:00:00 13,4 11,5 5 3 NE 1019,4 - 0,0
11.09.2019 04:00:00 - - - - - - - -
11.09.2019 03:00:00 - - - - - - - -
11.09.2019 02:00:00 14,7 12,7 0 0 N 1019,1 - -
11.09.2019 01:00:00 - - - - - - - -
11.09.2019 00:00:00 - - - - - - - -
10.09.2019 23:00:00 17,5 13,2 4 2 NNO 1018,5 10 0,0
10.09.2019 22:00:00 - - - - - - - -
10.09.2019 21:00:00 - - - - - - - -
10.09.2019 20:00:00 20,7 13,5 2 1 ENE 1017,4 10 -
10.09.2019 19:00:00 - - - - - - - -
10.09.2019 18:00:00 - - - - - - - -
10.09.2019 17:00:00 24,4 12,4 11 6 E 1016,9 10 0,0
10.09.2019 16:00:00 - - - - - - - -
10.09.2019 15:00:00 - - - - - - - -
10.09.2019 14:00:00 23,5 13,0 8 4 NE 1017,6 40 -
10.09.2019 13:00:00 - - - - - - - -
10.09.2019 12:00:00 - - - - - - - -
10.09.2019 11:00:00 18,8 13,5 9 5 NNE 1018,0 20 0,0
10.09.2019 10:00:00 - - - - - - - -
10.09.2019 09:00:00 - - - - - - - -
10.09.2019 08:00:00 15,7 13,3 9 5 NE 1017,0 35 -
10.09.2019 07:00:00 - - - - - - - -
10.09.2019 06:00:00 - - - - - - - -
10.09.2019 05:00:00 15,2 13,1 8 4 NNE 1016,4 - 0,0
10.09.2019 04:00:00 - - - - - - - -
10.09.2019 03:00:00 - - - - - - - -
10.09.2019 02:00:00 16,0 13,3 8 4 NNE 1016,8 - -
10.09.2019 01:00:00 - - - - - - - -
10.09.2019 00:00:00 - - - - - - - -
09.09.2019 23:00:00 16,2 13,7 4 2 NNE 1016,1 25 0,0
09.09.2019 22:00:00 - - - - - - - -
09.09.2019 21:00:00 - - - - - - - -

tt = Temperatura
td = dewpoint
ff = velocità del vento
dd = direzione del vento
ppp = reduced air pressure
vv = visibility
rr = precipitazioni

Stazioni seguenti

WeatherPro
AMSI
MeteoEarth